Regional Weather Roundup
Issued by NWS San Diego, CA

Home | Current Version | Previous Version | Text Only | Print | Product List | Glossary On
Versions: 1 2 3 4 5 6 7 8 9 10 11 12 13 14 15 16 17 18 19 20 21 22 23 24 25 26 27
000
ASUS46 KSGX 252011
RWRSGX

SAN DIEGO HOURLY WEATHER ROUNDUP
NATIONAL WEATHER SERVICE SAN DIEGO CA
1200 PM PST SAT FEB 25 2017

NOTE: "FAIR" INDICATES FEW OR NO CLOUDS BELOW 12,000 FEET WITH NO
SIGNIFICANT WEATHER AND/OR OBSTRUCTIONS TO VISIBILITY.

CAZ042-043-060-061-PZZ750-775-252100-

GREATER SAN DIEGO AREA

CITY           SKY/WX    TMP DP  RH WIND       PRES   REMARKS
SAN DIEGO AP   MOSUNNY   61  40  45 W8        30.12F
POINT LOMA       N/A     57  45  63 W13         N/A
NATIONAL CITY    N/A     60  48  64 S2        30.11F
CHULA VISTA      N/A     61  47  58 W3        30.03F
IMPERIAL BEACH SUNNY    N/A N/A N/A NW9       30.11F
BROWN FIELD    SUNNY     60  39  45 W7        30.10F
MIRAMAR MCAS   MOSUNNY   63  42  46 VRB6      30.09F
MONTGOMERY FLD SUNNY     61  39  44 SW7       30.09F

$$

NORTH SAN DIEGO COUNTY

CITY           SKY/WX    TMP DP  RH WIND       PRES   REMARKS
CAMP PENDLETON SUNNY     60  43  53 SW8       30.10F
OCEANSIDE AP   SUNNY     59  43  55 W8        30.10F
OCEANSIDE HBR    N/A     56  45  66 W5        30.13F
VISTA            N/A     59  44  57 W2        30.09F
CARLSBAD       MOSUNNY   57  42  57 W8        30.09F
DEL MAR          N/A     58  47  65 W1        30.12F
LA JOLLA SCRIP   N/A     56  47  72 SW3       30.11F
FALLBROOK        N/A     61  46  56 CALM      30.06F
ESCONDIDO        N/A     65  40  40 CALM      30.10F
SAN MARCOS       N/A     60  42  50 W3        30.11F
POWAY            N/A     64  35  34 W5        30.12F

$$

EAST SAN DIEGO COUNTY

CITY           SKY/WX    TMP DP  RH WIND       PRES   REMARKS
RAMONA         SUNNY     61  36  39 W5        30.08F
SANTEE LAKES     N/A     64  40  41 SW1       30.09F
LA MESA          N/A     61  34  36 SW3       30.05F
JAMUL            N/A     62  36  37 CALM      30.12F
DESCANSO N       N/A     54  18  24 W2        30.09F
MT. LAGUNA OBS   N/A     43   8  23 W7        29.65F
CAMPO            N/A     58  20  22 SW16G22   30.03F

$$

ORANGE COUNTY AND THE LOS ANGELES BASIN

CITY           SKY/WX    TMP DP  RH WIND       PRES   REMARKS
JOHN WAYNE AP  MOSUNNY   59  45  59 S9        30.09F
LAGUNA BEACH     N/A     59  50  72 SE2       30.05F
LAKE FOREST FR   N/A     60  33  36 CALM      30.00F
HUNTINGTON BCH   N/A     60  47  62 S1        30.11F
LOS ALAMITOS   PTSUNNY   59  44  58 S8        30.09F
FULLERTON      MOSUNNY   61  39  44 VRB3      30.08F
LONG BEACH     MOSUNNY   59  39  47 S9        30.09F
L.A. AP        PTSUNNY   60  44  55 W14       30.09F
L.A. DOWNTOWN  MOSUNNY   64  34  32 VRB5      30.08F

$$

THE INLAND EMPIRE

CITY           SKY/WX    TMP DP  RH WIND       PRES   REMARKS
CORONA         MOSUNNY   61  37  41 VRB3      30.08F
CHINO          MOSUNNY   61  40  45 N3        30.09F
ONTARIO        PTSUNNY   58  35  42 VRB3      30.07F
SAN BERNARDINO SUNNY     63  34  34 W3        30.06F
RIVERSIDE AP   PTSUNNY   60  37  42 W5        30.07F
MORENO VALLEY    N/A     59  41  52 CALM      28.19F
MARCH ARB      MOSUNNY   57  34  41 CALM      30.06F
HORSETHIEF CYN   N/A     60  27  28 CALM      30.11F
PERRIS           N/A     57  40  53 SW3       30.10F
HEMET EAST       N/A     56  26  31 CALM      30.15F
FRENCH VALLEY  FAIR      57  28  33 S3        30.08F
TEMECULA         N/A     61  43  51 CALM      30.12F

$$

SAN BERNARDINO AND RIVERSIDE COUNTY MOUNTAINS

CITY           SKY/WX    TMP DP  RH WIND       PRES   REMARKS
BIG BEAR AP    SUNNY     39   1  20 W13G21    30.04F WCI  32
ANGELUS OAKS     N/A     44  13  28 CALM      30.10F
PINE COVE        N/A     42   8  25 NW3       30.14F

$$

SOUTHERN DESERT INCLUDING THE COACHELLA VALLEY

CITY           SKY/WX    TMP DP  RH WIND       PRES   REMARKS
PALM SPRINGS   SUNNY     63  34  33 S6        30.07F
PALM DESERT      N/A     67  31  26 CALM        N/A
THERMAL        SUNNY     66  28  24 S8        30.05F
BLYTHE         SUNNY     62  27  26 SE5       30.08F
IMPERIAL AP    SUNNY     66  32  28 VRB3      30.05F
EL CENTRO NAS  SUNNY     64  28  25 CALM      30.07F
YUMA AZ        SUNNY     65  25  22 W3        30.07
MEXICALI       MOSUNNY   66  27  22 E2        30.08F

$$

UPPER DESERT

CITY           SKY/WX    TMP DP  RH WIND       PRES   REMARKS
VICTORVILLE AP MOSUNNY   55  16  21 CALM      30.02F
HESPERIA         N/A     56  21  25 W13       30.22F
PALMDALE       MOSUNNY   56  18  22 W14       30.02F
LANCASTER      SUNNY     58  22  24 SW14G23   30.02F
EDWARDS AFB    PTSUNNY   57  20  23 SW13      30.00F
DAGGETT        SUNNY     58  20  22 NE3       30.03F
29 PALMS N     MOSUNNY   56  20  24 SE5       30.12F
NEEDLES        SUNNY     62  25  24 SE5       30.06F

$$

REGIONAL REPORTS

CITY           SKY/WX    TMP DP  RH WIND       PRES   REMARKS
SANTA BARBARA  PTSUNNY   56  48  74 SE7       30.11S
SANDBERG       SUNNY     48  24  39 SW14      30.04F
LAS VEGAS NV   PTSUNNY   51  15  23 N7        30.04F
PHOENIX AZ     MOSUNNY   62  21  20 S5        30.06F
TIJUANA        MOSUNNY   59  37  44 W5        30.12F
ENSENADA NW      N/A     60  32  35 W8        30.08F

$$

OFFSHORE ISLANDS

CITY           SKY/WX    TMP DP  RH WIND       PRES   REMARKS
CATALINA ARPT  MOSUNNY   52  45  77 W8        30.08F
SAN NICOLAS IS MOSUNNY  N/A N/A N/A W20       30.12S

$$

MARINE AND OFFSHORE BUOY REPORTS

STATION/POSITION SKY/WX   TEMP    WIND        PRES    VSBY  SWELL
                          AIR SEA DIR/SP/G                  HT/PER/DIR
                          (F)     (DEG/KT/KT) (MB)    (MI)  (FT/S/D)
TANNER BANKS               55 59  310/ 12/ 16 1020.8          5/310/16
S CLEMENTE BASIN           55 59  280/ 10/ 12 1020.5          3/290/16
SAN NICOLAS IS.               55                N/A           3/300/17
SO. S. ROSA ISLA           53 56  310/ 16/ 17 1020.2          5/310/15
W. S. BARBARA CH           52 56  330/ 16/ 17 1020.3F         5/300/15
M. S. BARBARA CH                  290/ 12/ 16 1020.4S
S. MONICA BASIN                    60/  2/  4 1019.4
S PEDRO CHANNEL               59                N/A           2/280/15
CMP PENDLETON NS              58                N/A           2/230/17
OCEANSIDE OFFSHR              59                N/A           2/230/17
TORREY PINES OTR              61                N/A           2/250/15
POINT LOMA SOUTH              61                N/A           2/270/11

$$





USA.gov is the U.S. government's official web portal to all federal, state and local government web resources and services.